User: anonymous   Login
Location: Shell Point
(30.0571°N, 84.2896°W)
Time: 03:47:31
(UTC-04:00)
Language:

Meteor 2-19 Rocket - Orbit

View from above orbital plane
View from above orbital plane
View from above satellite
View from above satellite

Ground track
Ground track

The orbit data is extracted from the following two-line orbital elements,

1 20671U 90057B   15212.14703255  .00000012  00000-0 -22788-5 0  9991
2 20671 082.5457 198.2173 0016655 087.2708 322.5102 13.84592610267992
Epoch (UTC): 31 July 2015 03:31:43
Eccentricity: 0.0016655
inclination: 82.5457°
perigee height: 935 km
apogee height: 960 km
right ascension of ascending node: 198.2173°
argument of perigee: 87.2708°
revolutions per day: 13.84592610
mean anomaly at epoch: 322.5102°
orbit number at epoch: 26799

The dashed part of the orbit path shows where the satellite is in the earth's shadow,  

DLR